Regional Weather Roundup
Issued by NWS

Home | Current Version | Previous Version | Text Only | Print | Product List | Glossary Off
Versions: 1 2 3 4 5 6 7 8 9 10 11 12 13 14 15 16 17 18 19 20 21 22 23 24 25 26 27 28 29 30 31 32 33 34 35 36 37 38 39 40 41 42 43 44 45 46 47 48 49 50

000
ASUS43 KFSD 310910
RWRSD

WEATHER ROUNDUP FOR SOUTH DAKOTA
NATIONAL WEATHER SERVICE SIOUX FALLS SD
400 AM CDT MON AUG 31 2015

NOTE: "FAIR" INDICATES FEW OR NO CLOUDS BELOW 12,000 FEET WITH NO
SIGNIFICANT WEATHER AND/OR OBSTRUCTIONS TO VISIBILITY.


SDZ001>005-009-010-012>017-311000-
NORTHWEST AND NORTH CENTRAL SOUTH DAKOTA

CITY           SKY/WX    TMP DP  RH WIND       PRES   REMARKS
BUFFALO          N/A     65  52  62 N6        29.70R
MOBRIDGE       CLOUDY    74  59  59 S12       29.61S
$$

SDZ012>016-024>037-041>051-057-063-072>074-311000-
SOUTHWEST AND SOUTH CENTRAL SOUTH DAKOTA

CITY           SKY/WX    TMP DP  RH WIND       PRES   REMARKS
RAPID CTY ARPT CLOUDY    72  51  47 SW6       29.78R
PIERRE         PTCLDY    70  59  68 SE14      29.68F
CUSTER         MOCLDY    68  43  40 SW3       29.97R
ELLSWORTH AFB  CLOUDY    74  52  45 W13       29.76R
PHILIP         CLOUDY    75  49  39 W6        29.70R
PINE RIDGE     CLOUDY    73  48  41 CALM      29.83S
WINNER         FAIR      74  55  51 S28G38    29.76S
$$

SDZ004>011-016>023-039-040-311000-
NORTHEAST SOUTH DAKOTA

CITY           SKY/WX    TMP DP  RH WIND       PRES   REMARKS
ABERDEEN       CLEAR     68  63  84 S18G29    29.71F
WATERTOWN      CLEAR     66  62  87 S13       29.82F
BROOKINGS      CLEAR     64  61  88 S13       29.89S
SISSETON         N/A     72  59  63 S13G21    29.72F
$$

SDZ017-020-022-023-036>040-048>070-311000-
SOUTHEAST SOUTH DAKOTA

CITY           SKY/WX    TMP DP  RH WIND       PRES   REMARKS
SIOUX FALLS    CLEAR     65  63  93 S8        29.89F
HURON          CLEAR     66  64  93 S14       29.77F
CHAMBERLAIN    CLEAR     70  59  68 SE10      29.78R
MITCHELL       CLEAR     67  64  90 S9        29.84R
YANKTON        CLEAR     66  63  88 S7        29.88F
$$

ABBREVIATIONS USED IN REMARKS
   TC - TEMPERATURE IN CELSIUS
  WCI - WIND CHILL INDEX
   HX - HEAT INDEX
  VSB - VISIBILITY




USA.gov is the U.S. government's official web portal to all federal, state and local government web resources and services.